Time,TemperatureF,DewpointF,PressureIn,WindDirection,WindDirectionDegrees,WindSpeedMPH,WindSpeedGustMPH,Humidity,HourlyPrecipIn,Conditions,Clouds,dailyrainin,SoftwareType,DateUTC
2013-09-06 00:01:00,67.6,58.3,30.15,South,177,0.0,0.0,72,0.00,CLR,,0.00,WeatherDisplay:10.37,2013-09-06 04:01:00,
2013-09-06 00:02:00,67.6,58.3,30.15,South,177,0.0,0.0,72,0.00,CLR,,0.00,WeatherDisplay:10.37,2013-09-06 04:02:00,
2013-09-06 00:07:00,67.6,58.3,30.16,South,177,0.0,0.0,72,0.00,CLR,,0.00,WeatherDisplay:10.37,2013-09-06 04:07:00,
2013-09-06 00:12:00,67.5,58.9,30.16,South,177,0.0,0.0,74,0.00,CLR,,0.00,WeatherDisplay:10.37,2013-09-06 04:12:00,
2013-09-06 00:17:00,67.3,59.1,30.16,South,177,0.0,0.0,75,0.00,CLR,,0.00,WeatherDisplay:10.37,2013-09-06 04:17:00,
2013-09-06 00:22:00,67.3,59.1,30.15,South,177,0.0,0.0,75,0.00,CLR,,0.00,WeatherDisplay:10.37,2013-09-06 04:22:00,
2013-09-06 00:27:00,67.3,58.7,30.15,South,177,0.0,0.0,74,0.00,CLR,,0.00,WeatherDisplay:10.37,2013-09-06 04:27:00,
2013-09-06 00:32:00,66.9,58.4,30.15,South,177,0.0,0.0,74,0.00,CLR,,0.00,WeatherDisplay:10.37,2013-09-06 04:32:00,
2013-09-06 00:37:00,66.9,58.7,30.15,South,177,0.0,0.0,75,0.00,CLR,,0.00,WeatherDisplay:10.37,2013-09-06 04:37:00,
2013-09-06 00:42:00,66.7,58.9,30.16,South,177,0.0,0.0,76,0.00,CLR,,0.00,WeatherDisplay:10.37,2013-09-06 04:42:00,
2013-09-06 00:47:00,66.7,59.3,30.16,South,177,0.0,0.0,77,0.00,CLR,,0.00,WeatherDisplay:10.37,2013-09-06 04:47:00,
2013-09-06 00:52:00,66.7,59.7,30.16,South,177,0.0,0.0,78,0.00,CLR,,0.00,WeatherDisplay:10.37,2013-09-06 04:52:00,
2013-09-06 00:57:00,66.7,59.7,30.16,South,177,0.0,0.0,78,0.00,CLR,,0.00,WeatherDisplay:10.37,2013-09-06 04:57:00,
2013-09-06 01:02:00,66.7,60.0,30.16,South,177,0.0,0.0,79,0.00,CLR,,0.00,WeatherDisplay:10.37,2013-09-06 05:02:00,
2013-09-06 01:07:00,66.7,60.0,30.16,South,177,0.0,0.0,79,0.00,CLR,,0.00,WeatherDisplay:10.37,2013-09-06 05:07:00,
2013-09-06 01:12:00,66.7,60.4,30.16,South,177,0.0,0.0,80,0.00,CLR,,0.00,WeatherDisplay:10.37,2013-09-06 05:12:00,
2013-09-06 01:17:00,66.4,60.0,30.16,South,177,0.0,0.0,80,0.00,CLR,,0.00,WeatherDisplay:10.37,2013-09-06 05:17:00,
2013-09-06 01:22:00,66.4,60.0,30.16,South,177,0.0,0.0,80,0.00,CLR,,0.00,WeatherDisplay:10.37,2013-09-06 05:22:00,
2013-09-06 01:27:00,66.4,60.4,30.16,South,177,0.0,0.0,81,0.00,CLR,,0.00,WeatherDisplay:10.37,2013-09-06 05:27:00,
2013-09-06 01:32:00,66.4,60.0,30.16,South,177,0.0,0.0,80,0.00,CLR,,0.00,WeatherDisplay:10.37,2013-09-06 05:32:00,
2013-09-06 01:37:00,66.4,60.4,30.16,South,177,0.0,0.0,81,0.00,CLR,,0.00,WeatherDisplay:10.37,2013-09-06 05:37:00,
2013-09-06 01:42:00,66.4,60.7,30.17,South,177,0.0,0.0,82,0.00,CLR,,0.00,WeatherDisplay:10.37,2013-09-06 05:42:00,
2013-09-06 01:47:00,66.4,60.7,30.17,South,177,0.0,0.0,82,0.00,CLR,,0.00,WeatherDisplay:10.37,2013-09-06 05:47:00,
2013-09-06 01:52:00,66.4,60.7,30.17,South,177,0.0,0.0,82,0.00,CLR,,0.00,WeatherDisplay:10.37,2013-09-06 05:52:00,
2013-09-06 01:57:00,66.4,60.0,30.16,South,177,0.0,0.0,80,0.00,CLR,,0.00,WeatherDisplay:10.37,2013-09-06 05:57:00,
2013-09-06 02:02:00,66.0,59.7,30.16,South,177,0.0,0.0,80,0.00,CLR,,0.00,WeatherDisplay:10.37,2013-09-06 06:02:00,
2013-09-06 02:07:00,66.0,59.7,30.16,South,177,0.0,0.0,80,0.00,CLR,,0.00,WeatherDisplay:10.37,2013-09-06 06:07:00,
2013-09-06 02:12:00,65.8,59.1,30.15,South,177,0.0,0.0,79,0.00,CLR,,0.00,WeatherDisplay:10.37,2013-09-06 06:12:00,
2013-09-06 02:17:00,65.8,59.8,30.15,South,177,0.0,0.0,81,0.00,CLR,,0.00,WeatherDisplay:10.37,2013-09-06 06:17:00,
2013-09-06 02:22:00,65.8,59.8,30.15,South,177,0.0,0.0,81,0.00,CLR,,0.00,WeatherDisplay:10.37,2013-09-06 06:22:00,
2013-09-06 02:27:00,65.7,59.7,30.15,South,177,0.0,0.0,81,0.00,CLR,,0.00,WeatherDisplay:10.37,2013-09-06 06:27:00,
2013-09-06 02:32:00,65.5,59.8,30.16,South,177,0.0,0.0,82,0.00,CLR,,0.00,WeatherDisplay:10.37,2013-09-06 06:32:00,
2013-09-06 02:37:00,65.5,59.5,30.16,South,177,0.0,0.0,81,0.00,CLR,,0.00,WeatherDisplay:10.37,2013-09-06 06:37:00,
2013-09-06 02:42:00,65.5,59.5,30.16,South,177,0.0,0.0,81,0.00,CLR,,0.00,WeatherDisplay:10.37,2013-09-06 06:42:00,
2013-09-06 02:47:00,65.5,59.5,30.16,South,177,0.0,0.0,81,0.00,CLR,,0.00,WeatherDisplay:10.37,2013-09-06 06:47:00,
2013-09-06 02:52:00,65.5,59.5,30.16,South,177,0.0,0.0,81,0.00,CLR,,0.00,WeatherDisplay:10.37,2013-09-06 06:52:00,
2013-09-06 02:57:00,65.3,59.3,30.16,South,177,0.0,0.0,81,0.00,CLR,,0.00,WeatherDisplay:10.37,2013-09-06 06:57:00,
2013-09-06 03:02:00,65.3,59.3,30.16,South,177,0.0,0.0,81,0.00,CLR,,0.00,WeatherDisplay:10.37,2013-09-06 07:02:00,
2013-09-06 03:07:00,65.1,59.5,30.15,South,177,0.0,0.0,82,0.00,CLR,,0.00,WeatherDisplay:10.37,2013-09-06 07:07:00,
2013-09-06 03:12:00,65.1,59.1,30.16,West,267,0.0,0.0,81,0.00,CLR,,0.00,WeatherDisplay:10.37,2013-09-06 07:12:00,
2013-09-06 03:17:00,65.1,59.5,30.15,West,267,0.0,0.0,82,0.00,CLR,,0.00,WeatherDisplay:10.37,2013-09-06 07:17:00,
2013-09-06 03:22:00,65.1,59.5,30.15,West,267,0.0,0.0,82,0.00,CLR,,0.00,WeatherDisplay:10.37,2013-09-06 07:22:00,
2013-09-06 03:27:00,65.1,59.1,30.15,West,267,0.0,0.0,81,0.00,CLR,,0.00,WeatherDisplay:10.37,2013-09-06 07:27:00,
2013-09-06 03:32:00,64.8,58.8,30.16,West,267,0.0,0.0,81,0.00,CLR,,0.00,WeatherDisplay:10.37,2013-09-06 07:32:00,
2013-09-06 03:37:00,64.8,59.1,30.16,West,267,0.0,0.0,82,0.00,CLR,,0.00,WeatherDisplay:10.37,2013-09-06 07:37:00,
2013-09-06 03:42:00,64.8,59.5,30.15,West,267,0.0,0.0,83,0.00,CLR,,0.00,WeatherDisplay:10.37,2013-09-06 07:42:00,
2013-09-06 03:47:00,64.8,59.5,30.15,West,267,0.0,0.0,83,0.00,CLR,,0.00,WeatherDisplay:10.37,2013-09-06 07:47:00,
2013-09-06 03:52:00,64.8,59.1,30.15,West,267,0.0,0.0,82,0.00,CLR,,0.00,WeatherDisplay:10.37,2013-09-06 07:52:00,
2013-09-06 03:57:00,64.8,59.1,30.15,West,267,0.0,0.0,82,0.00,CLR,,0.00,WeatherDisplay:10.37,2013-09-06 07:57:00,
2013-09-06 04:02:00,64.8,59.5,30.15,West,267,0.0,0.0,83,0.00,CLR,,0.00,WeatherDisplay:10.37,2013-09-06 08:02:00,
2013-09-06 04:07:00,64.8,59.5,30.15,West,267,0.0,0.0,83,0.00,CLR,,0.00,WeatherDisplay:10.37,2013-09-06 08:07:00,
2013-09-06 04:12:00,64.6,59.3,30.15,West,267,0.0,0.0,83,0.00,CLR,,0.00,WeatherDisplay:10.37,2013-09-06 08:12:00,
2013-09-06 04:17:00,64.6,59.3,30.15,NNE,19,0.0,0.0,83,0.00,CLR,,0.00,WeatherDisplay:10.37,2013-09-06 08:17:00,
2013-09-06 04:22:00,64.8,59.8,30.16,ESE,109,0.0,0.0,84,0.00,CLR,,0.00,WeatherDisplay:10.37,2013-09-06 08:22:00,
2013-09-06 04:27:00,64.8,59.8,30.16,North,357,0.0,0.0,84,0.00,CLR,,0.00,WeatherDisplay:10.37,2013-09-06 08:27:00,
2013-09-06 04:32:00,64.8,59.5,30.15,NE,42,0.0,0.0,83,0.00,CLR,,0.00,WeatherDisplay:10.37,2013-09-06 08:32:00,
2013-09-06 04:37:00,64.8,59.5,30.15,North,357,0.0,0.0,83,0.00,CLR,,0.00,WeatherDisplay:10.37,2013-09-06 08:37:00,
2013-09-06 04:42:00,64.8,59.5,30.15,NNE,19,0.0,0.0,83,0.00,CLR,,0.00,WeatherDisplay:10.37,2013-09-06 08:42:00,
2013-09-06 04:47:00,64.8,59.8,30.15,North,357,0.0,0.0,84,0.00,CLR,,0.00,WeatherDisplay:10.37,2013-09-06 08:47:00,
2013-09-06 04:52:00,64.8,59.8,30.15,North,357,0.0,0.0,84,0.00,CLR,,0.00,WeatherDisplay:10.37,2013-09-06 08:52:00,
2013-09-06 04:57:00,64.8,59.5,30.15,NNE,19,0.0,0.0,83,0.00,CLR,,0.00,WeatherDisplay:10.37,2013-09-06 08:57:00,
2013-09-06 05:02:00,64.8,59.5,30.15,NE,42,0.0,0.0,83,0.00,CLR,,0.00,WeatherDisplay:10.37,2013-09-06 09:02:00,
2013-09-06 05:07:00,64.6,59.3,30.15,North,357,0.0,0.0,83,0.00,CLR,,0.00,WeatherDisplay:10.37,2013-09-06 09:07:00,
2013-09-06 05:12:00,64.6,59.6,30.15,North,357,0.0,0.0,84,0.00,CLR,,0.00,WeatherDisplay:10.37,2013-09-06 09:12:00,
2013-09-06 05:17:00,64.9,59.7,30.15,North,357,2.2,2.3,83,0.00,CLR,,0.00,WeatherDisplay:10.37,2013-09-06 09:17:00,
2013-09-06 05:22:00,65.3,60.0,30.15,North,357,1.7,2.3,83,0.00,CLR,,0.00,WeatherDisplay:10.37,2013-09-06 09:22:00,
2013-09-06 05:27:00,65.5,60.2,30.15,NNE,19,1.8,2.3,83,0.00,CLR,,0.00,WeatherDisplay:10.37,2013-09-06 09:27:00,
2013-09-06 05:32:00,65.8,60.5,30.15,NNE,19,0.0,0.0,83,0.00,CLR,,0.00,WeatherDisplay:10.37,2013-09-06 09:32:00,
2013-09-06 05:37:00,65.8,60.5,30.15,NE,42,0.8,3.5,83,0.00,CLR,,0.00,WeatherDisplay:10.37,2013-09-06 09:37:00,
2013-09-06 05:42:00,65.8,60.5,30.15,NNE,19,0.0,0.0,83,0.00,CLR,,0.00,WeatherDisplay:10.37,2013-09-06 09:42:00,
2013-09-06 05:47:00,65.8,60.5,30.15,NE,42,1.5,1.5,83,0.00,CLR,,0.00,WeatherDisplay:10.37,2013-09-06 09:47:00,
2013-09-06 05:52:00,65.7,60.4,30.15,NNE,19,0.0,0.0,83,0.00,CLR,,0.00,WeatherDisplay:10.37,2013-09-06 09:52:00,
2013-09-06 05:57:00,65.5,60.2,30.15,NNE,19,0.0,0.0,83,0.00,CLR,,0.00,WeatherDisplay:10.37,2013-09-06 09:57:00,
2013-09-06 06:02:00,65.1,59.8,30.15,NNE,19,0.0,0.0,83,0.00,CLR,,0.00,WeatherDisplay:10.37,2013-09-06 10:02:00,
2013-09-06 06:07:00,64.9,59.7,30.14,NNE,19,0.0,0.0,83,0.00,CLR,,0.00,WeatherDisplay:10.37,2013-09-06 10:07:00,
2013-09-06 06:12:00,64.9,60.0,30.14,North,357,0.0,0.0,84,0.00,CLR,,0.00,WeatherDisplay:10.37,2013-09-06 10:12:00,
2013-09-06 06:17:00,64.6,59.6,30.14,North,357,0.0,0.0,84,0.00,CLR,,0.00,WeatherDisplay:10.37,2013-09-06 10:17:00,
2013-09-06 06:22:00,64.4,59.5,30.15,NE,42,0.0,0.0,84,0.00,CLR,,0.00,WeatherDisplay:10.37,2013-09-06 10:22:00,
2013-09-06 06:27:00,64.2,59.6,30.15,North,357,0.0,0.0,85,0.00,CLR,,0.00,WeatherDisplay:10.37,2013-09-06 10:27:00,
2013-09-06 06:32:00,64.2,59.6,30.14,NNE,19,0.0,0.0,85,0.00,CLR,,0.00,WeatherDisplay:10.37,2013-09-06 10:32:00,
2013-09-06 06:37:00,64.0,59.4,30.15,NNE,19,0.0,0.0,85,0.00,CLR,,0.00,WeatherDisplay:10.37,2013-09-06 10:37:00,
2013-09-06 06:42:00,64.0,59.4,30.15,NE,42,0.0,0.0,85,0.00,CLR,,0.00,WeatherDisplay:10.37,2013-09-06 10:42:00,
2013-09-06 06:47:00,63.7,59.1,30.15,SE,132,0.0,0.0,85,0.00,CLR,,0.00,WeatherDisplay:10.37,2013-09-06 10:47:00,
2013-09-06 06:52:00,63.3,58.7,30.16,NNW,335,0.0,0.0,85,0.00,CLR,,0.00,WeatherDisplay:10.37,2013-09-06 10:52:00,
2013-09-06 06:57:00,63.1,58.6,30.16,SE,132,0.0,0.0,85,0.00,CLR,,0.00,WeatherDisplay:10.37,2013-09-06 10:57:00,
2013-09-06 07:02:00,63.1,58.9,30.15,NE,42,0.0,0.0,86,0.00,CLR,,0.00,WeatherDisplay:10.37,2013-09-06 11:02:00,
2013-09-06 07:07:00,63.1,58.9,30.16,ENE,65,0.0,0.0,86,0.00,CLR,,0.00,WeatherDisplay:10.37,2013-09-06 11:07:00,
2013-09-06 07:12:00,63.1,58.9,30.16,NE,42,0.0,0.0,86,0.00,CLR,,0.00,WeatherDisplay:10.37,2013-09-06 11:12:00,
2013-09-06 07:17:00,63.0,58.7,30.16,North,357,0.0,0.0,86,0.00,CLR,,0.00,WeatherDisplay:10.37,2013-09-06 11:17:00,
2013-09-06 07:22:00,63.0,59.0,30.16,ESE,109,0.0,0.0,87,0.00,CLR,,0.00,WeatherDisplay:10.37,2013-09-06 11:22:00,
2013-09-06 07:27:00,63.0,59.0,30.16,ESE,109,0.0,0.0,87,0.00,CLR,,0.00,WeatherDisplay:10.37,2013-09-06 11:27:00,
2013-09-06 07:32:00,62.8,58.9,30.16,NNW,335,0.0,0.0,87,0.00,CLR,,0.00,WeatherDisplay:10.37,2013-09-06 11:32:00,
2013-09-06 07:37:00,62.8,58.9,30.17,ESE,109,0.0,0.0,87,0.00,CLR,,0.00,WeatherDisplay:10.37,2013-09-06 11:37:00,
2013-09-06 07:42:00,62.8,58.9,30.17,NE,42,1.6,1.6,87,0.00,CLR,,0.00,WeatherDisplay:10.37,2013-09-06 11:42:00,
2013-09-06 07:47:00,62.8,58.9,30.17,East,87,0.0,0.0,87,0.00,CLR,,0.00,WeatherDisplay:10.37,2013-09-06 11:47:00,
2013-09-06 07:52:00,63.0,59.0,30.17,ENE,65,0.0,0.0,87,0.00,CLR,,0.00,WeatherDisplay:10.37,2013-09-06 11:52:00,
2013-09-06 07:57:00,63.0,59.0,30.17,ENE,65,0.0,0.0,87,0.00,CLR,,0.00,WeatherDisplay:10.37,2013-09-06 11:57:00,
2013-09-06 08:02:00,63.1,59.2,30.17,NE,42,0.0,0.0,87,0.00,CLR,,0.00,WeatherDisplay:10.37,2013-09-06 12:02:00,
2013-09-06 08:07:00,63.1,59.2,30.18,NE,42,0.0,0.0,87,0.00,CLR,,0.00,WeatherDisplay:10.37,2013-09-06 12:07:00,
2013-09-06 08:12:00,63.3,59.4,30.18,ESE,109,0.0,0.0,87,0.00,CLR,,0.00,WeatherDisplay:10.37,2013-09-06 12:12:00,
2013-09-06 08:17:00,63.7,60.1,30.18,East,87,0.0,0.0,88,0.00,CLR,,0.00,WeatherDisplay:10.37,2013-09-06 12:17:00,
2013-09-06 08:22:00,63.7,59.7,30.18,NNE,19,2.0,2.3,87,0.00,CLR,,0.00,WeatherDisplay:10.37,2013-09-06 12:22:00,
2013-09-06 08:27:00,64.0,60.1,30.18,ESE,109,0.0,0.0,87,0.00,CLR,,0.00,WeatherDisplay:10.37,2013-09-06 12:27:00,
2013-09-06 08:32:00,64.2,60.3,30.18,ENE,65,0.0,0.0,87,0.00,CLR,,0.00,WeatherDisplay:10.37,2013-09-06 12:32:00,
2013-09-06 08:37:00,64.6,60.6,30.18,ENE,65,0.5,1.3,87,0.00,CLR,,0.00,WeatherDisplay:10.37,2013-09-06 12:37:00,
2013-09-06 08:42:00,64.8,60.8,30.18,NNW,335,1.3,1.3,87,0.00,CLR,,0.00,WeatherDisplay:10.37,2013-09-06 12:42:00,
2013-09-06 08:47:00,65.1,60.8,30.18,ESE,109,1.3,2.3,86,0.00,CLR,,0.00,WeatherDisplay:10.37,2013-09-06 12:47:00,
2013-09-06 08:52:00,65.5,61.2,30.18,SSE,155,0.0,0.0,86,0.00,CLR,,0.00,WeatherDisplay:10.37,2013-09-06 12:52:00,
2013-09-06 08:57:00,66.0,61.7,30.18,North,357,0.0,0.0,86,0.00,CLR,,0.00,WeatherDisplay:10.37,2013-09-06 12:57:00,
2013-09-06 09:02:00,66.4,61.7,30.18,NE,42,0.0,0.0,85,0.00,CLR,,0.00,WeatherDisplay:10.37,2013-09-06 13:02:00,
2013-09-06 09:07:00,66.9,61.9,30.18,NNE,19,0.7,2.3,84,0.00,CLR,,0.00,WeatherDisplay:10.37,2013-09-06 13:07:00,
2013-09-06 09:12:00,67.6,62.6,30.18,NNE,19,0.0,0.0,84,0.00,CLR,,0.00,WeatherDisplay:10.37,2013-09-06 13:12:00,
2013-09-06 09:17:00,68.2,62.8,30.18,NE,42,1.0,1.1,83,0.00,CLR,,0.00,WeatherDisplay:10.37,2013-09-06 13:17:00,
2013-09-06 09:22:00,68.7,63.0,30.18,NE,42,2.0,3.5,82,0.00,CLR,,0.00,WeatherDisplay:10.37,2013-09-06 13:22:00,
2013-09-06 09:27:00,69.4,63.4,30.18,SE,132,0.0,0.0,81,0.00,CLR,,0.00,WeatherDisplay:10.37,2013-09-06 13:27:00,
2013-09-06 09:32:00,70.3,63.9,30.17,NE,42,0.0,2.5,80,0.00,CLR,,0.00,WeatherDisplay:10.37,2013-09-06 13:32:00,
2013-09-06 09:37:00,70.7,63.5,30.17,NNW,335,0.0,0.0,78,0.00,CLR,,0.00,WeatherDisplay:10.37,2013-09-06 13:37:00,
2013-09-06 09:42:00,70.9,63.7,30.18,ENE,65,0.0,0.0,78,0.00,CLR,,0.00,WeatherDisplay:10.37,2013-09-06 13:42:00,
2013-09-06 09:47:00,71.4,63.8,30.18,NE,42,1.1,1.1,77,0.00,CLR,,0.00,WeatherDisplay:10.37,2013-09-06 13:47:00,
2013-09-06 09:52:00,71.4,63.5,30.18,North,357,2.8,3.6,76,0.00,CLR,,0.00,WeatherDisplay:10.37,2013-09-06 13:52:00,
2013-09-06 09:57:00,71.8,63.8,30.18,ENE,65,1.1,1.1,76,0.00,CLR,,0.00,WeatherDisplay:10.37,2013-09-06 13:57:00,
2013-09-06 10:02:00,72.7,64.3,30.18,ESE,109,1.7,2.3,75,0.00,CLR,,0.00,WeatherDisplay:10.37,2013-09-06 14:02:00,
2013-09-06 10:07:00,73.2,64.4,30.18,NW,312,1.1,1.1,74,0.00,CLR,,0.00,WeatherDisplay:10.37,2013-09-06 14:07:00,
2013-09-06 10:12:00,73.2,64.4,30.18,NE,42,0.0,0.0,74,0.00,CLR,,0.00,WeatherDisplay:10.37,2013-09-06 14:12:00,
2013-09-06 10:17:00,74.1,65.3,30.18,ESE,109,1.1,1.1,74,0.00,CLR,,0.00,WeatherDisplay:10.37,2013-09-06 14:17:00,
2013-09-06 10:22:00,74.5,65.3,30.18,North,357,0.0,1.1,73,0.00,CLR,,0.00,WeatherDisplay:10.37,2013-09-06 14:22:00,
2013-09-06 10:27:00,75.4,65.7,30.18,NNW,335,1.3,1.3,72,0.00,CLR,,0.00,WeatherDisplay:10.37,2013-09-06 14:27:00,
2013-09-06 10:32:00,75.4,65.3,30.18,NW,312,0.0,0.0,71,0.00,CLR,,0.00,WeatherDisplay:10.37,2013-09-06 14:32:00,
2013-09-06 10:37:00,75.9,65.4,30.18,ENE,65,0.0,0.0,70,0.00,CLR,,0.00,WeatherDisplay:10.37,2013-09-06 14:37:00,
2013-09-06 10:42:00,76.1,65.6,30.18,NW,312,2.0,2.3,70,0.00,CLR,,0.00,WeatherDisplay:10.37,2013-09-06 14:42:00,
2013-09-06 10:47:00,76.8,65.9,30.18,East,87,1.3,2.7,69,0.00,CLR,,0.00,WeatherDisplay:10.37,2013-09-06 14:47:00,
2013-09-06 10:52:00,77.5,66.6,30.18,NNW,335,3.6,3.6,69,0.00,CLR,,0.00,WeatherDisplay:10.37,2013-09-06 14:52:00,
2013-09-06 10:57:00,77.9,66.1,30.18,NW,312,0.0,0.0,67,0.00,CLR,,0.00,WeatherDisplay:10.37,2013-09-06 14:57:00,
2013-09-06 11:02:00,77.9,65.6,30.18,NNW,335,0.0,0.0,66,0.00,CLR,,0.00,WeatherDisplay:10.37,2013-09-06 15:02:00,
2013-09-06 11:07:00,78.6,66.3,30.18,NNW,335,0.0,0.0,66,0.00,CLR,,0.00,WeatherDisplay:10.37,2013-09-06 15:07:00,
2013-09-06 11:12:00,79.0,66.6,30.18,NNE,19,0.0,0.0,66,0.00,CLR,,0.00,WeatherDisplay:10.37,2013-09-06 15:12:00,
2013-09-06 11:17:00,80.2,67.4,30.18,NE,42,2.0,2.3,65,0.00,CLR,,0.00,WeatherDisplay:10.37,2013-09-06 15:17:00,
2013-09-06 11:22:00,80.4,67.1,30.18,ENE,65,2.2,2.3,64,0.00,CLR,,0.00,WeatherDisplay:10.37,2013-09-06 15:22:00,
2013-09-06 11:27:00,80.4,66.7,30.18,East,87,2.7,3.5,63,0.00,CLR,,0.00,WeatherDisplay:10.37,2013-09-06 15:27:00,
2013-09-06 11:32:00,81.1,67.8,30.18,East,87,0.4,1.1,64,0.00,CLR,,0.00,WeatherDisplay:10.37,2013-09-06 15:32:00,
2013-09-06 11:37:00,81.7,67.4,30.18,East,87,1.3,1.3,62,0.00,CLR,,0.00,WeatherDisplay:10.37,2013-09-06 15:37:00,
2013-09-06 11:42:00,82.0,67.7,30.18,East,87,0.0,0.0,62,0.00,CLR,,0.00,WeatherDisplay:10.37,2013-09-06 15:42:00,
2013-09-06 11:47:00,82.4,67.1,30.18,NNW,335,3.2,3.6,60,0.00,CLR,,0.00,WeatherDisplay:10.37,2013-09-06 15:47:00,
2013-09-06 11:52:00,82.4,67.1,30.18,NE,42,0.0,4.6,60,0.00,CLR,,0.00,WeatherDisplay:10.37,2013-09-06 15:52:00,
2013-09-06 11:57:00,82.2,66.5,30.18,ESE,109,0.0,0.0,59,0.00,CLR,,0.00,WeatherDisplay:10.37,2013-09-06 15:57:00,
2013-09-06 12:02:00,82.4,66.6,30.18,ESE,109,2.2,2.3,59,0.00,CLR,,0.00,WeatherDisplay:10.37,2013-09-06 16:02:00,
2013-09-06 12:07:00,82.8,66.5,30.18,NNW,335,5.1,5.1,58,0.00,CLR,,0.00,WeatherDisplay:10.37,2013-09-06 16:07:00,
2013-09-06 12:12:00,82.2,66.0,30.18,North,357,0.7,1.1,58,0.00,CLR,,0.00,WeatherDisplay:10.37,2013-09-06 16:12:00,
2013-09-06 12:17:00,82.9,67.1,30.18,West,267,2.9,4.6,59,0.00,CLR,,0.00,WeatherDisplay:10.37,2013-09-06 16:17:00,
2013-09-06 12:22:00,83.5,67.6,30.17,NE,42,0.0,0.0,59,0.00,CLR,,0.00,WeatherDisplay:10.37,2013-09-06 16:22:00,
2013-09-06 12:27:00,83.5,67.1,30.18,NE,42,2.9,3.5,58,0.00,CLR,,0.00,WeatherDisplay:10.37,2013-09-06 16:27:00,
2013-09-06 12:32:00,83.8,67.0,30.17,East,87,2.8,5.8,57,0.00,CLR,,0.00,WeatherDisplay:10.37,2013-09-06 16:32:00,
2013-09-06 12:37:00,84.0,67.1,30.17,ESE,109,0.0,3.5,57,0.00,CLR,,0.00,WeatherDisplay:10.37,2013-09-06 16:37:00,
2013-09-06 12:42:00,84.4,67.5,30.17,SSW,199,0.0,0.0,57,0.00,CLR,,0.00,WeatherDisplay:10.37,2013-09-06 16:42:00,
2013-09-06 12:47:00,84.7,66.8,30.18,SE,132,0.6,2.3,55,0.00,CLR,,0.00,WeatherDisplay:10.37,2013-09-06 16:47:00,
2013-09-06 12:52:00,85.3,68.3,30.17,SE,132,2.9,3.5,57,0.00,CLR,,0.00,WeatherDisplay:10.37,2013-09-06 16:52:00,
2013-09-06 12:57:00,85.8,67.8,30.17,ESE,109,0.0,0.0,55,0.00,CLR,,0.00,WeatherDisplay:10.37,2013-09-06 16:57:00,
2013-09-06 13:02:00,86.2,68.1,30.17,ESE,109,1.9,2.7,55,0.00,CLR,,0.00,WeatherDisplay:10.37,2013-09-06 17:02:00,
2013-09-06 13:07:00,86.0,67.4,30.17,ENE,65,0.0,1.1,54,0.00,CLR,,0.00,WeatherDisplay:10.37,2013-09-06 17:07:00,
2013-09-06 13:12:00,85.8,66.7,30.16,North,357,0.7,2.2,53,0.00,CLR,,0.00,WeatherDisplay:10.37,2013-09-06 17:12:00,
2013-09-06 13:17:00,85.5,66.4,30.16,NE,42,0.7,1.1,53,0.00,CLR,,0.00,WeatherDisplay:10.37,2013-09-06 17:17:00,
2013-09-06 13:22:00,85.3,66.2,30.15,East,87,0.0,0.0,53,0.00,CLR,,0.00,WeatherDisplay:10.37,2013-09-06 17:22:00,
2013-09-06 13:27:00,85.3,66.2,30.16,NE,42,2.8,3.5,53,0.00,CLR,,0.00,WeatherDisplay:10.37,2013-09-06 17:27:00,
2013-09-06 13:32:00,84.9,65.9,30.15,ESE,109,1.6,2.3,53,0.00,CLR,,0.00,WeatherDisplay:10.37,2013-09-06 17:32:00,
2013-09-06 13:37:00,84.9,65.9,30.15,SE,132,1.0,2.3,53,0.00,CLR,,0.00,WeatherDisplay:10.37,2013-09-06 17:37:00,
2013-09-06 13:42:00,85.8,67.3,30.15,ENE,65,1.7,2.3,54,0.00,CLR,,0.00,WeatherDisplay:10.37,2013-09-06 17:42:00,
2013-09-06 13:47:00,86.2,67.0,30.15,East,87,3.5,4.6,53,0.00,CLR,,0.00,WeatherDisplay:10.37,2013-09-06 17:47:00,
2013-09-06 13:52:00,87.1,67.3,30.15,SSE,155,0.0,1.1,52,0.00,CLR,,0.00,WeatherDisplay:10.37,2013-09-06 17:52:00,
2013-09-06 13:57:00,87.4,66.5,30.14,North,357,0.9,1.1,50,0.00,CLR,,0.00,WeatherDisplay:10.37,2013-09-06 17:57:00,
2013-09-06 14:02:00,87.1,66.2,30.14,ENE,65,0.9,1.1,50,0.00,CLR,,0.00,WeatherDisplay:10.37,2013-09-06 18:02:00,
2013-09-06 14:07:00,87.1,65.6,30.14,SSE,155,0.0,3.5,49,0.00,CLR,,0.00,WeatherDisplay:10.37,2013-09-06 18:07:00,
2013-09-06 14:12:00,87.6,66.7,30.14,SE,132,4.2,4.6,50,0.00,SCT,,0.00,WeatherDisplay:10.37,2013-09-06 18:12:00,
2013-09-06 14:17:00,89.2,67.6,30.14,NE,42,1.6,0.0,49,0.00,SCT,,0.00,WeatherDisplay:10.37,2013-09-06 18:17:00,
2013-09-06 14:22:00,89.4,67.1,30.14,NNE,19,1.1,1.1,48,0.00,SCT,,0.00,WeatherDisplay:10.37,2013-09-06 18:22:00,
2013-09-06 14:27:00,88.3,66.2,30.14,NW,312,3.6,3.6,48,0.00,SCT,,0.00,WeatherDisplay:10.37,2013-09-06 18:27:00,
2013-09-06 14:32:00,87.4,66.5,30.14,ESE,109,1.5,1.5,50,0.00,SCT,,0.00,WeatherDisplay:10.37,2013-09-06 18:32:00,
2013-09-06 14:37:00,87.4,66.5,30.14,ESE,109,1.5,1.5,50,0.00,SCT,,0.00,WeatherDisplay:10.37,2013-09-06 18:37:00,
2013-09-06 14:42:00,87.1,66.8,30.13,ENE,65,0.0,0.0,51,0.00,SCT,,0.00,WeatherDisplay:10.37,2013-09-06 18:42:00,
2013-09-06 14:47:00,87.1,66.8,30.13,NE,42,0.9,1.1,51,0.00,SCT,,0.00,WeatherDisplay:10.37,2013-09-06 18:47:00,
2013-09-06 14:52:00,86.5,66.3,30.13,East,87,0.1,1.1,51,0.00,SCT,,0.00,WeatherDisplay:10.37,2013-09-06 18:52:00,
2013-09-06 14:57:00,85.6,65.4,30.13,NNW,335,1.1,0.0,51,0.00,SCT,,0.00,WeatherDisplay:10.37,2013-09-06 18:57:00,
2013-09-06 15:02:00,85.8,66.7,30.13,ESE,109,0.0,3.5,53,0.00,SCT,,0.00,WeatherDisplay:10.37,2013-09-06 19:02:00,
2013-09-06 15:07:00,86.4,67.2,30.13,ESE,109,0.0,3.5,53,0.00,SCT,,0.00,WeatherDisplay:10.37,2013-09-06 19:07:00,
2013-09-06 15:12:00,86.7,67.0,30.12,NNW,335,3.2,3.2,52,0.00,SCT,,0.00,WeatherDisplay:10.37,2013-09-06 19:12:00,
2013-09-06 15:17:00,86.7,67.0,30.12,West,267,0.9,1.1,52,0.00,SCT,,0.00,WeatherDisplay:10.37,2013-09-06 19:17:00,
2013-09-06 15:22:00,87.1,67.3,30.11,SSW,199,1.6,1.6,52,0.00,SCT,,0.00,WeatherDisplay:10.37,2013-09-06 19:22:00,
2013-09-06 15:27:00,87.1,67.3,30.11,SE,132,1.3,0.0,52,0.00,SCT,,0.00,WeatherDisplay:10.37,2013-09-06 19:27:00,
2013-09-06 15:32:00,88.9,67.2,30.11,ENE,65,1.6,1.6,49,0.00,SCT,,0.00,WeatherDisplay:10.37,2013-09-06 19:32:00,
2013-09-06 15:37:00,88.9,67.2,30.11,NNW,335,0.0,4.6,49,0.00,SCT,,0.00,WeatherDisplay:10.37,2013-09-06 19:37:00,
2013-09-06 15:42:00,87.6,66.7,30.11,NE,42,4.7,0.0,50,0.00,SCT,,0.00,WeatherDisplay:10.37,2013-09-06 19:42:00,
2013-09-06 15:47:00,87.6,66.7,30.11,NE,42,4.7,0.0,50,0.00,SCT,,0.00,WeatherDisplay:10.37,2013-09-06 19:47:00,
2013-09-06 15:52:00,87.1,66.2,30.11,ENE,65,0.0,0.0,50,0.00,SCT,,0.00,WeatherDisplay:10.37,2013-09-06 19:52:00,
2013-09-06 15:57:00,87.1,66.2,30.11,East,87,0.0,0.0,50,0.00,SCT,,0.00,WeatherDisplay:10.37,2013-09-06 19:57:00,
2013-09-06 16:02:00,85.8,66.7,30.11,ESE,109,0.0,0.0,53,0.00,SCT,,0.00,WeatherDisplay:10.37,2013-09-06 20:02:00,
2013-09-06 16:07:00,85.8,66.7,30.11,SW,222,0.0,0.0,53,0.00,SCT,,0.00,WeatherDisplay:10.37,2013-09-06 20:07:00,
2013-09-06 16:12:00,86.7,67.0,30.11,South,177,2.3,3.5,52,0.00,BKN,,0.00,WeatherDisplay:10.37,2013-09-06 20:12:00,
2013-09-06 16:17:00,86.7,67.0,30.11,South,177,2.3,3.5,52,0.00,BKN,,0.00,WeatherDisplay:10.37,2013-09-06 20:17:00,
2013-09-06 16:22:00,88.0,67.6,30.10,SSE,155,3.1,3.1,51,0.00,BKN,,0.00,WeatherDisplay:10.37,2013-09-06 20:22:00,
2013-09-06 16:27:00,88.5,67.5,30.10,SSE,155,3.1,3.1,50,0.00,BKN,,0.00,WeatherDisplay:10.37,2013-09-06 20:27:00,
2013-09-06 16:32:00,88.3,67.3,30.10,East,87,1.6,0.0,50,0.00,BKN,,0.00,WeatherDisplay:10.37,2013-09-06 20:32:00,
2013-09-06 16:37:00,88.3,67.3,30.10,East,87,1.6,0.0,50,0.00,BKN,,0.00,WeatherDisplay:10.37,2013-09-06 20:37:00,
2013-09-06 16:42:00,87.1,66.2,30.10,ESE,109,2.9,3.5,50,0.00,BKN,,0.00,WeatherDisplay:10.37,2013-09-06 20:42:00,
2013-09-06 16:47:00,87.1,66.2,30.10,ENE,65,2.9,0.0,50,0.00,BKN,,0.00,WeatherDisplay:10.37,2013-09-06 20:47:00,
2013-09-06 16:52:00,85.3,66.2,30.10,ENE,65,0.0,0.0,53,0.00,BKN,,0.00,WeatherDisplay:10.37,2013-09-06 20:52:00,
2013-09-06 16:57:00,85.1,66.0,30.09,ESE,109,1.6,2.3,53,0.00,BKN,,0.00,WeatherDisplay:10.37,2013-09-06 20:57:00,
2013-09-06 17:02:00,85.3,66.8,30.09,ENE,65,0.2,1.1,54,0.00,BKN,,0.00,WeatherDisplay:10.37,2013-09-06 21:02:00,
2013-09-06 17:07:00,85.5,65.3,30.09,SE,132,1.3,1.3,51,0.00,BKN,,0.00,WeatherDisplay:10.37,2013-09-06 21:07:00,
2013-09-06 17:12:00,85.8,65.6,30.09,SE,132,0.0,0.0,51,0.00,FEW,,0.00,WeatherDisplay:10.37,2013-09-06 21:12:00,
2013-09-06 17:17:00,85.8,65.6,30.08,NW,312,2.8,3.5,51,0.00,FEW,,0.00,WeatherDisplay:10.37,2013-09-06 21:17:00,
2013-09-06 17:22:00,85.8,65.6,30.08,West,267,1.8,2.3,51,0.00,FEW,,0.00,WeatherDisplay:10.37,2013-09-06 21:22:00,
2013-09-06 17:27:00,85.8,65.6,30.09,West,267,1.1,1.1,51,0.00,FEW,,0.00,WeatherDisplay:10.37,2013-09-06 21:27:00,
2013-09-06 17:32:00,85.8,65.0,30.09,NNW,335,5.8,5.8,50,0.00,FEW,,0.00,WeatherDisplay:10.37,2013-09-06 21:32:00,
2013-09-06 17:37:00,85.8,65.6,30.08,East,87,2.0,2.3,51,0.00,FEW,,0.00,WeatherDisplay:10.37,2013-09-06 21:37:00,
2013-09-06 17:42:00,85.6,66.0,30.08,East,87,0.0,0.0,52,0.00,FEW,,0.00,WeatherDisplay:10.37,2013-09-06 21:42:00,
2013-09-06 17:47:00,85.8,66.7,30.08,NW,312,0.9,1.1,53,0.00,FEW,,0.00,WeatherDisplay:10.37,2013-09-06 21:47:00,
2013-09-06 17:52:00,85.8,66.2,30.08,WNW,289,0.5,2.3,52,0.00,FEW,,0.00,WeatherDisplay:10.37,2013-09-06 21:52:00,
2013-09-06 17:57:00,85.8,66.2,30.08,North,357,0.0,0.0,52,0.00,FEW,,0.00,WeatherDisplay:10.37,2013-09-06 21:57:00,
2013-09-06 18:02:00,85.3,65.7,30.08,NNE,19,3.1,3.5,52,0.00,FEW,,0.00,WeatherDisplay:10.37,2013-09-06 22:02:00,
2013-09-06 18:07:00,85.1,65.5,30.08,ESE,109,0.0,0.0,52,0.00,FEW,,0.00,WeatherDisplay:10.37,2013-09-06 22:07:00,
2013-09-06 18:12:00,84.7,65.7,30.08,NNE,19,0.0,0.0,53,0.00,FEW,,0.00,WeatherDisplay:10.37,2013-09-06 22:12:00,
2013-09-06 18:17:00,84.6,65.5,30.08,NE,42,0.0,0.0,53,0.00,FEW,,0.00,WeatherDisplay:10.37,2013-09-06 22:17:00,
2013-09-06 18:22:00,84.4,64.8,30.08,NNW,335,1.6,1.6,52,0.00,FEW,,0.00,WeatherDisplay:10.37,2013-09-06 22:22:00,
2013-09-06 18:27:00,84.2,64.7,30.08,NNW,335,1.1,1.1,52,0.00,FEW,,0.00,WeatherDisplay:10.37,2013-09-06 22:27:00,
2013-09-06 18:32:00,84.0,64.5,30.08,NNW,335,0.5,0.0,52,0.00,FEW,,0.00,WeatherDisplay:10.37,2013-09-06 22:32:00,
2013-09-06 18:37:00,84.0,64.5,30.08,NNW,335,0.0,0.0,52,0.00,FEW,,0.00,WeatherDisplay:10.37,2013-09-06 22:37:00,
2013-09-06 18:42:00,84.0,65.0,30.08,ENE,65,0.0,0.0,53,0.00,FEW,,0.00,WeatherDisplay:10.37,2013-09-06 22:42:00,
2013-09-06 18:47:00,83.8,65.4,30.08,East,87,0.0,0.0,54,0.00,FEW,,0.00,WeatherDisplay:10.37,2013-09-06 22:47:00,
2013-09-06 18:52:00,83.7,65.8,30.08,ENE,65,0.0,0.0,55,0.00,FEW,,0.00,WeatherDisplay:10.37,2013-09-06 22:52:00,
2013-09-06 18:57:00,83.1,65.3,30.08,NE,42,0.9,1.1,55,0.00,FEW,,0.00,WeatherDisplay:10.37,2013-09-06 22:57:00,
2013-09-06 19:02:00,82.9,65.6,30.08,NE,42,0.0,0.0,56,0.00,FEW,,0.00,WeatherDisplay:10.37,2013-09-06 23:02:00,
2013-09-06 19:07:00,82.6,65.3,30.08,NE,42,0.0,0.0,56,0.00,FEW,,0.00,WeatherDisplay:10.37,2013-09-06 23:07:00,
2013-09-06 19:12:00,82.2,65.5,30.08,NE,42,0.0,0.0,57,0.00,CLR,,0.00,WeatherDisplay:10.37,2013-09-06 23:12:00,
2013-09-06 19:17:00,82.2,65.5,30.08,WNW,289,0.0,0.0,57,0.00,CLR,,0.00,WeatherDisplay:10.37,2013-09-06 23:17:00,
2013-09-06 19:22:00,81.7,65.5,30.08,WNW,289,0.0,0.0,58,0.00,CLR,,0.00,WeatherDisplay:10.37,2013-09-06 23:22:00,
2013-09-06 19:27:00,81.7,65.5,30.08,WNW,289,0.0,0.0,58,0.00,CLR,,0.00,WeatherDisplay:10.37,2013-09-06 23:27:00,
2013-09-06 19:32:00,81.1,65.5,30.08,WNW,289,0.0,0.0,59,0.00,CLR,,0.00,WeatherDisplay:10.37,2013-09-06 23:32:00,
2013-09-06 19:37:00,81.1,65.5,30.08,WNW,289,0.0,0.0,59,0.00,CLR,,0.00,WeatherDisplay:10.37,2013-09-06 23:37:00,
2013-09-06 19:42:00,80.2,65.6,30.08,West,267,0.0,0.0,61,0.00,CLR,,0.00,WeatherDisplay:10.37,2013-09-06 23:42:00,
2013-09-06 19:47:00,79.5,64.9,30.08,West,267,0.0,0.0,61,0.00,CLR,,0.00,WeatherDisplay:10.37,2013-09-06 23:47:00,
2013-09-06 19:52:00,79.5,65.8,30.08,West,267,0.0,0.0,63,0.00,CLR,,0.00,WeatherDisplay:10.37,2013-09-06 23:52:00,
2013-09-06 19:57:00,78.6,65.0,30.08,WNW,289,0.0,0.0,63,0.00,CLR,,0.00,WeatherDisplay:10.37,2013-09-06 23:57:00,
2013-09-06 20:02:00,78.4,64.8,30.08,WNW,289,0.0,0.0,63,0.00,CLR,,0.00,WeatherDisplay:10.37,2013-09-07 00:02:00,
2013-09-06 20:07:00,77.5,63.9,30.09,WNW,289,0.0,0.0,63,0.00,CLR,,0.00,WeatherDisplay:10.37,2013-09-07 00:07:00,
2013-09-06 20:12:00,77.2,64.1,30.09,WNW,289,0.0,0.0,64,0.00,CLR,,0.00,WeatherDisplay:10.37,2013-09-07 00:12:00,
2013-09-06 20:17:00,77.2,64.1,30.09,WNW,289,0.0,0.0,64,0.00,CLR,,0.00,WeatherDisplay:10.37,2013-09-07 00:17:00,
2013-09-06 20:22:00,76.1,63.9,30.09,WNW,289,0.0,0.0,66,0.00,CLR,,0.00,WeatherDisplay:10.37,2013-09-07 00:22:00,
2013-09-06 20:27:00,75.7,63.6,30.09,WNW,289,0.0,0.0,66,0.00,CLR,,0.00,WeatherDisplay:10.37,2013-09-07 00:27:00,
2013-09-06 20:32:00,75.4,63.2,30.09,WNW,289,0.0,0.0,66,0.00,CLR,,0.00,WeatherDisplay:10.37,2013-09-07 00:32:00,
2013-09-06 20:37:00,74.8,62.7,30.08,WNW,289,0.0,0.0,66,0.00,CLR,,0.00,WeatherDisplay:10.37,2013-09-07 00:37:00,
2013-09-06 20:42:00,74.3,62.6,30.08,WNW,289,0.0,0.0,67,0.00,CLR,,0.00,WeatherDisplay:10.37,2013-09-07 00:42:00,
2013-09-06 20:47:00,74.1,62.5,30.08,WNW,289,0.0,0.0,67,0.00,CLR,,0.00,WeatherDisplay:10.37,2013-09-07 00:47:00,
2013-09-06 20:52:00,73.9,62.3,30.08,WNW,289,0.0,0.0,67,0.00,CLR,,0.00,WeatherDisplay:10.37,2013-09-07 00:52:00,
2013-09-06 20:57:00,73.6,61.9,30.08,WNW,289,0.0,0.0,67,0.00,CLR,,0.00,WeatherDisplay:10.37,2013-09-07 00:57:00,
2013-09-06 21:03:00,73.2,62.0,30.08,WNW,289,0.0,0.0,68,0.00,CLR,,0.00,WeatherDisplay:10.37,2013-09-07 01:03:00,
2013-09-06 21:08:00,73.0,61.9,30.08,WNW,289,0.0,0.0,68,0.00,CLR,,0.00,WeatherDisplay:10.37,2013-09-07 01:08:00,
2013-09-06 21:13:00,72.9,62.1,30.08,WNW,289,0.0,0.0,69,0.00,CLR,,0.00,WeatherDisplay:10.37,2013-09-07 01:13:00,
2013-09-06 21:18:00,72.9,62.5,30.08,WNW,289,0.0,0.0,70,0.00,CLR,,0.00,WeatherDisplay:10.37,2013-09-07 01:18:00,
2013-09-06 21:23:00,72.3,62.0,30.08,WNW,289,0.0,0.0,70,0.00,CLR,,0.00,WeatherDisplay:10.37,2013-09-07 01:23:00,
2013-09-06 21:28:00,72.3,62.0,30.08,WNW,289,0.0,0.0,70,0.00,CLR,,0.00,WeatherDisplay:10.37,2013-09-07 01:28:00,
2013-09-06 21:33:00,72.1,62.2,30.08,WNW,289,0.0,0.0,71,0.00,CLR,,0.00,WeatherDisplay:10.37,2013-09-07 01:33:00,
2013-09-06 21:38:00,72.1,62.2,30.08,WNW,289,0.0,0.0,71,0.00,CLR,,0.00,WeatherDisplay:10.37,2013-09-07 01:38:00,
2013-09-06 21:43:00,71.8,62.3,30.09,NNW,335,0.0,0.0,72,0.00,CLR,,0.00,WeatherDisplay:10.37,2013-09-07 01:43:00,
2013-09-06 21:48:00,71.8,62.3,30.09,NW,312,0.0,0.0,72,0.00,CLR,,0.00,WeatherDisplay:10.37,2013-09-07 01:48:00,
2013-09-06 21:53:00,71.8,62.3,30.08,NW,312,0.0,0.0,72,0.00,CLR,,0.00,WeatherDisplay:10.37,2013-09-07 01:53:00,
2013-09-06 21:58:00,71.4,61.9,30.08,NW,312,0.0,0.0,72,0.00,CLR,,0.00,WeatherDisplay:10.37,2013-09-07 01:58:00,
2013-09-06 22:03:00,71.2,61.7,30.08,NE,42,0.0,0.0,72,0.00,CLR,,0.00,WeatherDisplay:10.37,2013-09-07 02:03:00,
2013-09-06 22:08:00,70.9,61.4,30.08,NE,42,0.0,0.0,72,0.00,CLR,,0.00,WeatherDisplay:10.37,2013-09-07 02:08:00,
2013-09-06 22:13:00,70.9,61.8,30.08,ENE,65,0.0,0.0,73,0.00,CLR,,0.00,WeatherDisplay:10.37,2013-09-07 02:13:00,
2013-09-06 22:18:00,70.7,61.6,30.08,NE,42,0.0,0.0,73,0.00,CLR,,0.00,WeatherDisplay:10.37,2013-09-07 02:18:00,
2013-09-06 22:23:00,70.5,61.4,30.08,NE,42,0.0,0.0,73,0.00,CLR,,0.00,WeatherDisplay:10.37,2013-09-07 02:23:00,
2013-09-06 22:28:00,70.3,61.7,30.08,NE,42,0.0,0.0,74,0.00,CLR,,0.00,WeatherDisplay:10.37,2013-09-07 02:28:00,
2013-09-06 22:33:00,70.3,62.0,30.08,NE,42,0.0,0.0,75,0.00,CLR,,0.00,WeatherDisplay:10.37,2013-09-07 02:33:00,
2013-09-06 22:38:00,70.2,61.9,30.08,NE,42,0.0,0.0,75,0.00,CLR,,0.00,WeatherDisplay:10.37,2013-09-07 02:38:00,
2013-09-06 22:43:00,70.2,61.9,30.08,NE,42,0.0,0.0,75,0.00,CLR,,0.00,WeatherDisplay:10.37,2013-09-07 02:43:00,
2013-09-06 22:48:00,70.0,61.7,30.08,North,357,0.0,0.0,75,0.00,CLR,,0.00,WeatherDisplay:10.37,2013-09-07 02:48:00,
2013-09-06 22:53:00,70.0,61.7,30.08,North,357,0.0,0.0,75,0.00,CLR,,0.00,WeatherDisplay:10.37,2013-09-07 02:53:00,
2013-09-06 22:58:00,69.8,61.5,30.08,North,357,0.0,0.0,75,0.00,CLR,,0.00,WeatherDisplay:10.37,2013-09-07 02:58:00,
2013-09-06 23:03:00,69.6,61.3,30.08,North,357,0.0,0.0,75,0.00,CLR,,0.00,WeatherDisplay:10.37,2013-09-07 03:03:00,
2013-09-06 23:08:00,69.6,61.7,30.08,NE,42,0.0,0.0,76,0.00,CLR,,0.00,WeatherDisplay:10.37,2013-09-07 03:08:00,
2013-09-06 23:13:00,69.4,61.5,30.08,ENE,65,0.0,0.0,76,0.00,CLR,,0.00,WeatherDisplay:10.37,2013-09-07 03:13:00,
2013-09-06 23:18:00,69.4,61.5,30.08,South,177,0.0,0.0,76,0.00,CLR,,0.00,WeatherDisplay:10.37,2013-09-07 03:18:00,
2013-09-06 23:23:00,69.4,61.9,30.08,North,357,0.0,0.0,77,0.00,CLR,,0.00,WeatherDisplay:10.37,2013-09-07 03:23:00,
2013-09-06 23:28:00,69.4,61.5,30.08,ENE,65,0.0,0.0,76,0.00,CLR,,0.00,WeatherDisplay:10.37,2013-09-07 03:28:00,
2013-09-06 23:33:00,69.4,61.5,30.08,East,87,0.0,0.0,76,0.00,CLR,,0.00,WeatherDisplay:10.37,2013-09-07 03:33:00,
2013-09-06 23:38:00,69.4,61.9,30.08,NE,42,0.0,0.0,77,0.00,CLR,,0.00,WeatherDisplay:10.37,2013-09-07 03:38:00,
2013-09-06 23:43:00,69.4,61.9,30.08,East,87,0.0,0.0,77,0.00,CLR,,0.00,WeatherDisplay:10.37,2013-09-07 03:43:00,
2013-09-06 23:48:00,69.6,62.1,30.08,NNE,19,0.0,0.0,77,0.00,CLR,,0.00,WeatherDisplay:10.37,2013-09-07 03:48:00,
2013-09-06 23:53:00,69.4,61.9,30.08,NNE,19,0.0,0.0,77,0.00,CLR,,0.00,WeatherDisplay:10.37,2013-09-07 03:53:00,
2013-09-06 23:58:00,69.4,61.9,30.09,ENE,65,0.0,0.0,77,0.00,CLR,,0.00,WeatherDisplay:10.37,2013-09-07 03:58:00,